Regional Weather Roundup
Issued by NWS Binghamton, NY

Home | Current Version | Previous Version | Text Only | Print | Product List | Glossary On
Versions: 1 2 3 4 5 6 7 8 9 10 11 12 13 14 15 16 17 18 19 20 21 22 23 24 25 26 27 28 29 30 31 32 33 34 35 36 37 38 39 40 41 42 43 44 45 46 47 48 49 50
000
ASUS41 KBGM 240310
RWRBGM

REGIONAL WEATHER ROUNDUP
NATIONAL WEATHER SERVICE BINGHAMTON NY
1100 PM EDT MON OCT 23 2017

Note: "fair" indicates few or no clouds below 12,000 feet with no
significant weather and/or obstructions to visibility.

* = Station(s) that does not report precipitation, such as rain,
snow, etc, also no thunder or fog.

NYZ009-015>018-022>025-036-037-044>046-055>057-062-240400
...Central New York...

CITY           SKY/WX    TMP DP  RH WIND       PRES   REMARKS
Binghamton     CLOUDY    64  56  75 S13G31    29.89F
Cortland       FAIR      68  57  68 S15G25    29.85F
Dansville      CLOUDY    71  54  54 S20G29    29.70F
Elmira         CLOUDY    71  59  65 S16G30    29.79F
Seneca Falls   CLEAR     70  55  60 S22G31    29.76F
Ithaca         CLOUDY    68  58  70 SE20G33   29.82F
Hamilton       CLOUDY    66  55  68 S17G28    29.88F
Hornell        PTCLDY    68  54  60 SE18G25   29.75F
Monticello     LGT RAIN  65  61  87 SE15G23   30.01F
Oneonta        PTCLDY    64 N/A N/A S9G28     29.95F
Penn Yan       CLOUDY    70  53  54 S15G24    29.77F
Rome           CLOUDY    67  58  72 SE14      29.90F
Sidney         MOCLDY    68  61  77 S6G24     29.92F
Syracuse       NOT AVBL
$$

PAZ038>040-043-044-047-048-072-240400
...Northeast Pennsylvania...

CITY           SKY/WX    TMP DP  RH WIND       PRES   REMARKS
Hazleton       DRIZZLE   64  61  88 SE14G31   29.93F
Scranton       CLOUDY    70  60  70 S8        29.89F
$$
&&
KEY
WCI = Wind Chill Index
VSB = Visibility
HX  = Heat Index
$$



USA.gov is the U.S. government's official web portal to all federal, state and local government web resources and services.